When you browse on this site, cookies collect data to enhance your experience and personalize the content and advertising you see.
Visit our Privacy Policy to learn more. By continuing to use the site, you agree to this use of cookies and data.
  • en France
  • Liste des pays
  • À 7 jours
  • Température de l'eau
  • Carte satellitaire
  • Carte météo
  • Widgets météo
  • user-avatar
    Se connecter

    Météo par heure à Brikama

    Ce jour, 24 Mai, Vendredi

    Heure Température Précipitation Vent Pression Humidité
    00:00 +27°C° 0 mm 7 m/s 755 mmHg 59%
    01:00 +26°C° 0 mm 7 m/s 755 mmHg 61%
    02:00 +26°C° 0 mm 6 m/s 754 mmHg 62%
    03:00 +26°C° 0 mm 6 m/s 754 mmHg 64%
    04:00 +26°C° 0 mm 5 m/s 754 mmHg 65%
    05:00 +25°C° 0 mm 4 m/s 755 mmHg 66%
    06:00 +26°C° 0 mm 4 m/s 755 mmHg 61%
    07:00 +27°C° 0 mm 4 m/s 755 mmHg 55%
    08:00 +28°C° 0 mm 3 m/s 756 mmHg 49%
    09:00 +30°C° 0 mm 3 m/s 756 mmHg 42%
    10:00 +33°C° 0 mm 3 m/s 756 mmHg 36%
    11:00 +35°C° 0 mm 3 m/s 756 mmHg 29%
    12:00 +36°C° 0 mm 4 m/s 755 mmHg 30%
    13:00 +36°C° 0 mm 5 m/s 755 mmHg 31%
    14:00 +37°C° 0 mm 5 m/s 754 mmHg 32%
    15:00 +35°C° 0 mm 6 m/s 754 mmHg 39%
    16:00 +33°C° 0 mm 7 m/s 753 mmHg 46%
    17:00 +30°C° 0 mm 7 m/s 753 mmHg 53%
    18:00 +29°C° 0 mm 7 m/s 753 mmHg 57%
    19:00 +28°C° 0 mm 7 m/s 754 mmHg 60%
    20:00 +27°C° 0 mm 7 m/s 754 mmHg 63%
    21:00 +27°C° 0 mm 7 m/s 755 mmHg 65%
    22:00 +26°C° 0 mm 6 m/s 755 mmHg 66%
    23:00 +26°C° 0 mm 6 m/s 755 mmHg 68%

    Demain, 25 Mai, Samedi

    Heure Température Précipitation Vent Pression Humidité
    00:00 +26°C° 0 mm 5 m/s 755 mmHg 69%
    01:00 +26°C° 0 mm 4 m/s 755 mmHg 71%
    02:00 +25°C° 0 mm 3 m/s 755 mmHg 73%
    03:00 +25°C° 0 mm 3 m/s 755 mmHg 74%
    04:00 +25°C° 0 mm 2 m/s 755 mmHg 75%
    05:00 +25°C° 0 mm 2 m/s 755 mmHg 77%
    06:00 +25°C° 0 mm 2 m/s 756 mmHg 72%
    07:00 +26°C° 0 mm 2 m/s 756 mmHg 67%
    08:00 +27°C° 0 mm 3 m/s 757 mmHg 62%
    09:00 +29°C° 0 mm 3 m/s 757 mmHg 55%
    10:00 +30°C° 0 mm 3 m/s 757 mmHg 48%
    11:00 +33°C° 0 mm 3 m/s 757 mmHg 40%
    12:00 +34°C° 0 mm 4 m/s 756 mmHg 39%
    13:00 +34°C° 0 mm 5 m/s 755 mmHg 39%
    14:00 +35°C° 0 mm 5 m/s 755 mmHg 38%
    15:00 +33°C° 0 mm 5 m/s 754 mmHg 42%
    16:00 +32°C° 0 mm 6 m/s 754 mmHg 47%
    17:00 +30°C° 0 mm 6 m/s 754 mmHg 51%
    18:00 +29°C° 0 mm 6 m/s 754 mmHg 56%
    19:00 +28°C° 0 mm 6 m/s 755 mmHg 61%
    20:00 +27°C° 0 mm 5 m/s 755 mmHg 66%
    21:00 +26°C° 0 mm 5 m/s 756 mmHg 67%
    22:00 +26°C° 0 mm 5 m/s 756 mmHg 69%
    23:00 +26°C° 0 mm 4 m/s 756 mmHg 70%

    Après-demain, 26 Mai, Dimanche

    Heure Température Précipitation Vent Pression Humidité
    00:00 +26°C° 0 mm 4 m/s 756 mmHg 72%
    01:00 +25°C° 0 mm 3 m/s 756 mmHg 73%
    02:00 +25°C° 0 mm 2 m/s 756 mmHg 75%
    03:00 +25°C° 0 mm 2 m/s 756 mmHg 76%
    04:00 +25°C° 0 mm 2 m/s 756 mmHg 78%
    05:00 +24°C° 0 mm 2 m/s 756 mmHg 79%
    06:00 +25°C° 0 mm 2 m/s 757 mmHg 75%
    07:00 +26°C° 0 mm 1 m/s 757 mmHg 71%
    08:00 +27°C° 0 mm 1 m/s 757 mmHg 67%
    09:00 +28°C° 0 mm 1 m/s 757 mmHg 59%
    10:00 +30°C° 0 mm 2 m/s 757 mmHg 52%
    11:00 +31°C° 0 mm 2 m/s 758 mmHg 44%
    12:00 +33°C° 0 mm 3 m/s 757 mmHg 43%
    13:00 +33°C° 0 mm 4 m/s 756 mmHg 42%
    14:00 +34°C° 0 mm 5 m/s 756 mmHg 40%
    15:00 +33°C° 0 mm 5 m/s 755 mmHg 44%
    16:00 +32°C° 0 mm 6 m/s 755 mmHg 48%
    17:00 +29°C° 0 mm 6 m/s 754 mmHg 52%
    18:00 +28°C° 0 mm 6 m/s 755 mmHg 57%
    19:00 +28°C° 0 mm 5 m/s 756 mmHg 63%
    20:00 +27°C° 0 mm 5 m/s 756 mmHg 69%
    21:00 +26°C° 0 mm 5 m/s 756 mmHg 70%
    22:00 +26°C° 0 mm 4 m/s 757 mmHg 71%
    23:00 +26°C° 0 mm 4 m/s 757 mmHg 72%

    27 Mai, Lundi

    Heure Température Précipitation Vent Pression Humidité
    00:00 +26°C° 0 mm 4 m/s 757 mmHg 74%
    01:00 +25°C° 0 mm 4 m/s 756 mmHg 76%
    02:00 +25°C° 0 mm 4 m/s 756 mmHg 78%
    03:00 +25°C° 0 mm 3 m/s 756 mmHg 78%
    04:00 +25°C° 0 mm 3 m/s 756 mmHg 79%
    05:00 +25°C° 0 mm 3 m/s 756 mmHg 80%
    06:00 +25°C° 0 mm 3 m/s 756 mmHg 75%
    07:00 +26°C° 0 mm 2 m/s 757 mmHg 70%
    08:00 +27°C° 0 mm 2 m/s 757 mmHg 64%
    09:00 +28°C° 0 mm 3 m/s 757 mmHg 58%
    10:00 +30°C° 0 mm 3 m/s 757 mmHg 51%
    11:00 +31°C° 0 mm 3 m/s 757 mmHg 44%
    12:00 +33°C° 0 mm 4 m/s 756 mmHg 42%
    13:00 +33°C° 0 mm 5 m/s 756 mmHg 41%
    14:00 +34°C° 0 mm 5 m/s 755 mmHg 39%
    15:00 +33°C° 0 mm 5 m/s 755 mmHg 42%
    16:00 +32°C° 0 mm 5 m/s 754 mmHg 46%
    17:00 +30°C° 0 mm 6 m/s 754 mmHg 50%
    18:00 +29°C° 0 mm 6 m/s 755 mmHg 55%
    19:00 +28°C° 0 mm 6 m/s 756 mmHg 60%
    20:00 +27°C° 0 mm 6 m/s 756 mmHg 65%
    21:00 +27°C° 0 mm 6 m/s 756 mmHg 66%
    22:00 +26°C° 0 mm 5 m/s 756 mmHg 67%
    23:00 +26°C° 0 mm 5 m/s 757 mmHg 67%

    28 Mai, Mardi

    Heure Température Précipitation Vent Pression Humidité
    00:00 +26°C° 0 mm 4 m/s 756 mmHg 69%
    01:00 +26°C° 0 mm 4 m/s 756 mmHg 70%
    02:00 +26°C° 0 mm 4 m/s 755 mmHg 71%
    03:00 +26°C° 0 mm 4 m/s 755 mmHg 71%
    04:00 +26°C° 0 mm 4 m/s 756 mmHg 71%
    05:00 +25°C° 0 mm 4 m/s 756 mmHg 71%
    06:00 +26°C° 0 mm 3 m/s 756 mmHg 67%
    07:00 +27°C° 0 mm 3 m/s 757 mmHg 63%
    08:00 +28°C° 0 mm 3 m/s 757 mmHg 58%
    09:00 +29°C° 0 mm 3 m/s 757 mmHg 52%
    10:00 +31°C° 0 mm 3 m/s 757 mmHg 45%
    11:00 +33°C° 0 mm 3 m/s 757 mmHg 39%
    12:00 +34°C° 0 mm 4 m/s 756 mmHg 38%
    13:00 +34°C° 0 mm 5 m/s 755 mmHg 37%
    14:00 +34°C° 0 mm 6 m/s 754 mmHg 36%
    15:00 +33°C° 0 mm 6 m/s 754 mmHg 41%
    16:00 +32°C° 0 mm 6 m/s 754 mmHg 46%
    17:00 +30°C° 0 mm 6 m/s 754 mmHg 51%
    18:00 +29°C° 0 mm 6 m/s 755 mmHg 54%
    19:00 +28°C° 0 mm 6 m/s 755 mmHg 57%
    20:00 +27°C° 0 mm 7 m/s 756 mmHg 60%
    21:00 +27°C° 0 mm 6 m/s 756 mmHg 60%
    22:00 +27°C° 0 mm 6 m/s 756 mmHg 60%
    23:00 +27°C° 0 mm 6 m/s 757 mmHg 60%

    29 Mai, Mercredi

    Heure Température Précipitation Vent Pression Humidité
    00:00 +27°C° 0 mm 6 m/s 756 mmHg 61%
    01:00 +26°C° 0 mm 6 m/s 756 mmHg 61%
    02:00 +26°C° 0 mm 5 m/s 755 mmHg 61%
    03:00 +26°C° 0 mm 5 m/s 755 mmHg 62%
    04:00 +26°C° 0 mm 5 m/s 755 mmHg 63%
    05:00 +26°C° 0 mm 4 m/s 755 mmHg 64%
    06:00 +27°C° 0 mm 4 m/s 756 mmHg 59%
    07:00 +27°C° 0 mm 4 m/s 756 mmHg 54%
    08:00 +28°C° 0 mm 4 m/s 757 mmHg 49%
    09:00 +30°C° 0 mm 4 m/s 756 mmHg 43%
    10:00 +33°C° 0 mm 5 m/s 756 mmHg 37%
    11:00 +34°C° 0 mm 5 m/s 756 mmHg 31%
    12:00 +35°C° 0 mm 5 m/s 755 mmHg 32%
    13:00 +35°C° 0 mm 6 m/s 754 mmHg 33%
    14:00 +36°C° 0 mm 6 m/s 753 mmHg 33%
    15:00 +34°C° 0 mm 7 m/s 753 mmHg 38%
    16:00 +33°C° 0 mm 7 m/s 753 mmHg 42%
    17:00 +30°C° 0 mm 7 m/s 753 mmHg 47%
    18:00 +30°C° 0 mm 7 m/s 754 mmHg 50%
    19:00 +29°C° 0 mm 7 m/s 754 mmHg 53%
    20:00 +28°C° 0 mm 7 m/s 755 mmHg 55%
    21:00 +28°C° 0 mm 7 m/s 755 mmHg 56%
    22:00 +27°C° 0 mm 7 m/s 755 mmHg 57%
    23:00 +27°C° 0 mm 7 m/s 755 mmHg 58%
    Voir plus